DateTimeUTC,F1_A11,F1_S11,BsB_S11,BsG_S11,BsR_S11,BbsB_S11,BbsG_S11,BbsR_S11,BaB_A11,BaG_A11,BaR_A11,Tu_S11,T_S11,Uu_S11,U_S11,P_S11,T1_A11
2021-06-25T23:00:00Z,00000200,20000000,,,,,,,-000.09,0000.23,0000.24,18.2,24.9,05.3,03.5,0668.0,31.1
2021-06-25T23:01:00Z,00000200,20000000,,,,,,,-000.19,-000.63,-000.32,18.2,24.9,05.3,03.5,0668.0,31.1
2021-06-25T23:02:00Z,00000200,20000000,,,,,,,0000.52,0000.43,0000.18,18.2,24.9,05.3,03.5,0668.0,31.1
2021-06-25T23:03:00Z,00000200,60000000,,,,,,,-000.07,-000.05,0000.29,18.2,24.9,05.3,03.5,0668.0,31.1
2021-06-25T23:04:00Z,00000200,40000000,0001.48,0000.55,0000.05,0000.21,-000.06,0000.26,0000.31,0000.38,0000.07,18.2,24.7,05.5,03.7,0668.9,31.1
2021-06-25T23:05:00Z,00000200,00000000,0001.06,0000.20,0000.35,0000.12,0000.22,0000.01,0000.08,-000.07,0000.25,18.3,24.7,05.5,03.7,0668.8,31.1
2021-06-25T23:06:00Z,00000200,00000000,0000.29,0000.29,0000.47,0000.05,0000.01,-000.12,-000.11,0000.20,-000.22,18.4,24.7,05.3,03.6,0668.9,31.1
2021-06-25T23:07:00Z,00000200,00000000,0001.12,0000.36,0000.56,-000.04,-000.06,0000.24,0000.32,0000.20,0000.06,18.4,24.7,05.2,03.5,0669.0,31.1
2021-06-25T23:08:00Z,00000200,00000000,0000.61,0000.30,0000.44,-000.26,0000.22,0000.29,-000.35,-000.32,-000.06,18.5,24.8,05.0,03.4,0669.1,31.1
2021-06-25T23:09:00Z,00000200,00000000,0000.90,0000.52,0000.41,0000.06,-000.04,0000.03,-000.16,-000.22,0000.19,18.5,24.8,04.9,03.4,0669.0,31.1
2021-06-25T23:10:00Z,00000200,00000000,0001.03,0000.48,0000.33,-000.09,-000.18,0000.01,0000.24,-000.07,-000.19,18.5,24.8,04.8,03.3,0669.0,31.1
2021-06-25T23:11:00Z,00000200,00000000,0001.00,0000.49,0000.57,0000.20,0000.12,0000.24,0000.12,0000.32,-000.11,18.4,24.8,05.0,03.4,0669.0,31.1
2021-06-25T23:12:00Z,00000200,00000000,0001.20,0000.47,0000.34,-000.16,0000.12,0000.13,0000.15,0000.06,0000.31,18.4,24.7,05.1,03.4,0669.1,31.1
2021-06-25T23:13:00Z,00000200,00000000,0000.83,0000.32,0000.44,-000.00,-000.08,-000.15,0000.20,0000.06,-000.02,18.3,24.7,05.2,03.5,0669.1,31.1
2021-06-25T23:14:00Z,00000200,00000000,0001.07,0000.40,0000.31,-000.00,-000.15,0000.29,-000.19,0000.28,0000.19,18.3,24.7,05.3,03.6,0669.2,31.1
2021-06-25T23:15:00Z,00000200,00000000,0000.99,0000.39,0000.22,-000.08,0000.06,0000.29,0000.12,0000.16,0000.15,18.2,24.6,05.4,03.6,0669.4,31.1
2021-06-25T23:16:00Z,00000200,00000000,0001.21,0000.26,0000.38,-000.27,-000.18,0000.11,0000.58,0000.33,0000.22,18.2,24.6,05.6,03.8,0669.5,31.0
2021-06-25T23:17:00Z,00000200,00000000,0000.30,0000.55,0000.10,0000.07,0000.13,0000.16,0000.20,-000.11,0000.09,18.2,24.6,05.6,03.8,0669.5,31.0
2021-06-25T23:18:00Z,00000200,00000000,0000.66,0000.27,0000.37,-000.02,0000.18,0000.16,0000.16,0000.46,0000.27,18.2,24.6,05.7,03.8,0669.3,31.1
2021-06-25T23:19:00Z,00000200,00000000,0001.41,0000.42,0000.31,0000.51,0000.23,0000.17,0000.32,-000.12,0000.17,18.2,24.6,05.5,03.7,0669.2,31.1
2021-06-25T23:20:00Z,00000200,00000000,0001.24,0000.17,0000.38,-000.31,-000.03,0000.07,-000.27,0000.36,0000.14,18.2,24.6,05.5,03.7,0669.1,31.1
2021-06-25T23:21:00Z,00000200,00000000,0000.92,0000.42,0000.33,-000.60,0000.10,-000.14,0000.29,-000.40,-000.02,18.3,24.6,05.3,03.6,0669.1,31.1
2021-06-25T23:22:00Z,00000200,00000000,0001.07,0000.37,0000.33,-000.16,-000.04,-000.12,-000.06,0000.25,-000.12,18.4,24.6,05.3,03.6,0669.2,31.1
2021-06-25T23:23:00Z,00000200,00000000,0000.95,0000.28,0000.11,0000.13,0000.05,0000.17,0000.29,0000.33,0000.15,18.4,24.7,05.2,03.6,0669.3,31.1
2021-06-25T23:24:00Z,00000200,00000000,0000.19,0000.41,0000.34,-000.09,0000.21,0000.09,0000.03,-000.02,-000.10,18.4,24.7,05.3,03.6,0669.4,31.1
2021-06-25T23:25:00Z,00000200,00000000,0000.93,0000.48,0000.27,-000.18,0000.02,0000.26,0000.09,0000.43,0000.24,18.4,24.7,05.4,03.7,0669.4,31.1
2021-06-25T23:26:00Z,00000200,00000000,0001.19,0000.49,0000.43,0000.06,-000.07,0000.39,0000.07,-000.36,-000.05,18.3,24.6,05.3,03.6,0669.4,31.1
2021-06-25T23:27:00Z,00000200,00000000,0000.66,0000.07,0000.29,0000.33,0000.17,0000.02,0000.17,0000.23,0000.12,18.3,24.6,05.4,03.7,0669.4,31.1
2021-06-25T23:28:00Z,00000200,00000000,0001.02,0000.43,0000.14,-000.12,0000.23,-000.03,-000.23,0000.18,-000.15,18.2,24.6,05.3,03.6,0669.2,31.1
2021-06-25T23:29:00Z,00000200,00000000,0000.86,0000.37,0000.28,-000.36,-000.21,0000.24,0000.34,-000.16,-000.03,18.2,24.5,05.5,03.7,0669.3,31.0
2021-06-25T23:30:00Z,00000200,00000000,0001.30,0000.40,0000.26,0000.50,-000.03,0000.30,0000.04,0000.25,0000.37,18.1,24.5,05.4,03.7,0669.4,31.0
2021-06-25T23:31:00Z,00000200,00000000,0001.17,0000.45,0000.21,-000.12,-000.12,0000.09,-000.07,-000.01,-000.04,18.1,24.5,05.5,03.7,0669.2,31.0
2021-06-25T23:32:00Z,00000200,00000000,0000.84,0000.05,0000.59,-000.15,-000.01,0000.24,0000.17,-000.16,-000.06,18.1,24.4,05.4,03.6,0669.2,31.0
2021-06-25T23:33:00Z,00000200,00000000,0000.67,0000.41,0000.51,-000.59,-000.03,0000.30,0000.16,0000.22,0000.32,18.0,24.4,05.4,03.6,0669.1,31.0
2021-06-25T23:34:00Z,00000200,00000000,0000.33,0000.35,0000.23,-000.02,0000.14,0000.22,0000.00,0000.18,0000.11,18.1,24.4,05.2,03.5,0669.1,31.0
2021-06-25T23:35:00Z,00000200,00000000,0000.65,0000.02,0000.65,0000.21,0000.24,0000.06,0000.32,-000.05,-000.02,18.1,24.5,05.2,03.5,0669.1,31.1
2021-06-25T23:36:00Z,00000200,00000000,0000.94,0000.36,-000.14,-000.11,0000.04,-000.18,-000.36,-000.05,0000.10,18.2,24.5,05.2,03.5,0669.1,31.1
2021-06-25T23:37:00Z,00000200,00000000,0000.46,-000.12,-000.01,-000.08,-000.06,0000.04,0000.37,0000.32,0000.09,18.2,24.5,05.2,03.6,0669.0,31.1
2021-06-25T23:38:00Z,00000200,00000000,0001.30,0000.42,0000.11,-000.01,-000.16,0000.29,0000.22,0000.14,0000.09,18.3,24.5,05.1,03.5,0669.1,31.1
2021-06-25T23:39:00Z,00000200,00000000,0000.85,0000.59,0000.19,-000.11,-000.11,-000.25,0000.12,-000.04,-000.06,18.3,24.6,05.3,03.6,0669.0,31.1
2021-06-25T23:40:00Z,00000200,00000000,0000.68,0000.57,0000.27,-000.11,0000.18,0000.22,-000.33,0000.13,0000.22,18.3,24.6,05.2,03.5,0669.1,31.1
2021-06-25T23:41:00Z,00000200,00000000,0000.44,0000.24,0000.30,0000.07,0000.14,0000.39,0000.15,0000.01,-000.25,18.3,24.6,05.2,03.5,0669.1,31.1
2021-06-25T23:42:00Z,00000200,00000000,0001.18,0000.44,0000.44,-000.41,-000.16,0000.28,0000.35,0000.07,0000.40,18.3,24.6,05.2,03.6,0669.1,31.1
2021-06-25T23:43:00Z,00000200,00000000,0001.24,0000.19,0000.18,-000.49,-000.01,-000.00,-000.24,-000.16,0000.02,18.2,24.5,05.2,03.6,0669.1,31.1
2021-06-25T23:44:00Z,00000200,00000000,0000.55,0000.45,0000.35,0000.29,0000.14,0000.52,0000.40,0000.32,-000.18,18.2,24.5,05.3,03.6,0669.3,31.1
2021-06-25T23:45:00Z,00000200,00000000,0000.54,0000.34,0000.13,-000.14,-000.12,0000.07,-000.30,-000.10,0000.25,18.1,24.5,05.3,03.6,0669.2,31.1
2021-06-25T23:46:00Z,00000200,00000000,0000.91,0000.29,0000.11,0000.06,0000.02,-000.10,0000.17,-000.09,0000.07,18.1,24.5,05.3,03.6,0669.0,31.0
2021-06-25T23:47:00Z,00000200,00000000,0000.79,-000.10,0000.26,0000.31,0000.15,0000.20,0000.11,0000.29,-000.12,18.1,24.4,05.3,03.6,0669.3,31.0
2021-06-25T23:48:00Z,00000200,00000000,0001.29,0000.40,0000.36,-000.16,0000.07,0000.35,-000.07,-000.49,-000.21,18.1,24.4,05.2,03.5,0669.2,31.0
2021-06-25T23:49:00Z,00000200,00000000,0001.01,0000.31,0000.26,0000.19,0000.14,0000.32,0000.02,0000.39,0000.28,18.1,24.4,05.2,03.5,0669.1,31.1
2021-06-25T23:50:00Z,00000200,00000000,0000.68,0000.32,0000.22,-000.01,-000.02,0000.13,0000.75,0000.38,0000.22,18.1,24.4,05.3,03.6,0669.2,31.1
2021-06-25T23:51:00Z,00000200,00000000,0000.43,0000.20,0000.34,0000.07,0000.15,0000.25,-000.10,0000.30,0000.09,18.2,24.5,05.4,03.6,0669.3,31.1
2021-06-25T23:52:00Z,00000200,00000000,0000.73,0000.28,0000.24,-000.33,-000.12,0000.21,-000.14,-000.34,0000.01,18.3,24.5,05.4,03.7,0669.2,31.1
2021-06-25T23:53:00Z,00000200,00000000,0000.95,0000.46,0000.25,-000.09,-000.12,-000.02,0000.43,0000.80,0000.63,18.3,24.5,05.3,03.6,0669.4,31.1
2021-06-25T23:54:00Z,00000200,00000000,0000.63,0000.56,0000.35,-000.11,0000.19,0000.12,-000.09,-000.22,-000.12,18.4,24.6,05.4,03.7,0669.3,31.1
2021-06-25T23:55:00Z,00000200,00000000,0000.79,0000.54,0000.11,-000.75,0000.04,0000.16,0000.05,0000.05,0000.25,18.4,24.6,05.4,03.7,0669.3,31.1
2021-06-25T23:56:00Z,00000200,00000000,0001.13,0000.45,0000.25,-000.14,-000.14,-000.10,0000.14,-000.01,-000.50,18.4,24.6,05.4,03.7,0669.3,31.1
2021-06-25T23:57:00Z,00000200,40000000,,,,,,,-000.05,-000.01,0000.22,18.4,24.6,05.7,03.9,0669.2,31.1
2021-06-25T23:58:00Z,00000200,60000000,,,,,,,-000.07,-000.06,-000.10,18.1,24.7,05.3,03.6,0668.3,31.1
2021-06-25T23:59:00Z,00000200,20000000,,,,,,,-000.07,-000.08,-000.02,18.1,24.8,05.3,03.5,0668.3,31.1
